Regional Weather Roundup
Issued by NWS Little Rock, AR

Home | Current Version | Previous Version | Text Only | Print | Product List | Glossary On
Versions: 1 2 3 4 5 6 7 8 9 10 11 12 13 14 15 16 17 18 19 20 21 22 23 24 25 26 27 28 29 30 31 32 33 34 35 36 37 38 39 40 41 42 43 44 45 46 47 48 49 50
000
ASUS44 KLZK 020005
RWRLZK

WEATHER ROUNDUP FOR ARKANSAS
NATIONAL WEATHER SERVICE LITTLE ROCK AR
700 PM CDT FRI JUL 01 2016

NOTE: "FAIR" INDICATES FEW OR NO CLOUDS BELOW 12,000 FEET WITH NO
SIGNIFICANT WEATHER AND/OR OBSTRUCTIONS TO VISIBILITY.

ARZ001-003-010-029-020100-
NORTHWEST ARKANSAS

CITY           SKY/WX    TMP DP  RH WIND       PRES   REMARKS
FAYETTEVILLE   CLOUDY    74  73  97 CALM      30.04F
6HR MIN TEMP:  68; 6HR MAX TEMP:  86; 6HR PCP:  0.40;

FORT SMITH     CLOUDY    76  71  85 E15       30.01R
6HR MIN TEMP:  76; 6HR MAX TEMP:  97; 6HR PCP:  0.04;

HARRISON       LGT RAIN  78  73  84 E3        30.06F
6HR MIN TEMP:  77; 6HR MAX TEMP:  85; 6HR PCP:  0.01;

BENTONVILLE    CLOUDY    79  66  65 SE5       30.05F
6HR MIN TEMP:  73; 6HR MAX TEMP:  84; 6HR PCP:  0.03;

ROGERS         MOSUNNY   79  70  74 E5        30.06F
6HR MIN TEMP:  76; 6HR MAX TEMP:  82;

SILOAM SPGS    CLOUDY    73  64  73 SE5       30.05F
6HR MIN TEMP:  72; 6HR MAX TEMP:  86; 6HR PCP:  0.81;

HIGHFILL       CLOUDY    77  73  87 E3        30.04F
6HR MIN TEMP:  73; 6HR MAX TEMP:  83; 6HR PCP:  0.05;

SPRINGDALE     MOSUNNY   75  73  94 CALM      30.07F
$$

ARZ004-005-016-020100-
NORTH CENTRAL ARKANSAS

CITY           SKY/WX    TMP DP  RH WIND       PRES   REMARKS
BATESVILLE     CLOUDY    82  70  65 NE3       30.03R HX  86
6HR MIN TEMP:  82; 6HR MAX TEMP:  90;

FLIPPIN        CLOUDY    81  72  74 N3        30.02F
6HR MIN TEMP:  81; 6HR MAX TEMP:  88;

MTN HOME       CLOUDY    79  70  74 VRB3      30.04S
6HR MIN TEMP:  78; 6HR MAX TEMP:  86;

$$

ARZ040-041-020100-
WEST CENTRAL ARKANSAS

CITY           SKY/WX    TMP DP  RH WIND       PRES   REMARKS
MENA           MOSUNNY   82  75  78 CALM      30.03R HX  89
MOUNT IDA      PTSUNNY   82  73  74 CALM      30.00S HX  87
6HR MIN TEMP:  78; 6HR MAX TEMP:  93; 6HR PCP:  0.01;

$$

ARZ009-017-025-026-028-020100-
NORTHEAST ARKANSAS

CITY           SKY/WX    TMP DP  RH WIND       PRES   REMARKS
CORNING          N/A     82  72  69 SE3       30.02S HX  87
JONESBORO      CLOUDY    85  65  51 CALM      30.02R HX  86
6HR MIN TEMP:  85; 6HR MAX TEMP:  91;

NEWPORT        CLOUDY    83  75  76 NE3       30.03R HX  90
6HR MIN TEMP:  83; 6HR MAX TEMP:  89;

WALNUT RIDGE     N/A     82  68  61 SE5       30.02R HX  85
6HR MIN TEMP:  82; 6HR MAX TEMP:  88;

BLYTHEVILLE    CLOUDY    82  69  64 N7        30.01S HX  85
6HR MIN TEMP:  82; 6HR MAX TEMP:  89;

$$

ARZ022-023-033-042-044-020100-
CENTRAL ARKANSAS

CITY           SKY/WX    TMP DP  RH WIND       PRES   REMARKS
LITTLE ROCK    CLOUDY    79  71  76 CALM      30.01S
6HR MIN TEMP:  75; 6HR MAX TEMP:  95; 6HR PCP:  0.89;

JACKSONVILLE   CLOUDY    83  71  67 VRB3      30.00F HX  88
6HR MIN TEMP:  82; 6HR MAX TEMP:  94;

SEARCY         MOSUNNY   86  72  62 E7        30.01F HX  92
6HR MIN TEMP:  86; 6HR MAX TEMP:  91;

HOT SPRINGS    CLOUDY    84  71  65 SE3       30.01F HX  89
6HR MIN TEMP:  83; 6HR MAX TEMP:  91;

RUSSELLVILLE   PTSUNNY   80  70  71 NE3       30.00F
6HR MIN TEMP:  80; 6HR MAX TEMP:  91; 6HR PCP: TRACE;

$$

ARZ036-020100-
EAST ARKANSAS

CITY           SKY/WX    TMP DP  RH WIND       PRES   REMARKS
WEST MEMPHIS   CLOUDY    85  70  60 N5        30.00R HX  89
6HR MIN TEMP:  85; 6HR MAX TEMP:  91;

$$

ARZ050-053-066-070-073-020100-
SOUTHWEST ARKANSAS

CITY           SKY/WX    TMP DP  RH WIND       PRES   REMARKS
ARKADELPHIA    FAIR      81  77  88 N3        30.00S HX  88
6HR MIN TEMP:  75; 6HR MAX TEMP:  97; 6HR PCP:  1.02;

CAMDEN         MOSUNNY   86  73  66 N3        29.98F HX  93
TEXARKANA      SUNNY     92  69  47 SE6       29.98F HX  97
6HR MIN TEMP:  91; 6HR MAX TEMP:  96;

EL DORADO      SUNNY     92  66  42 S5        29.99F HX  94
6HR MIN TEMP:  91; 6HR MAX TEMP:  96;

DE QUEEN       CLOUDY    91  75  59 NE3       29.95F HX 101
6HR MIN TEMP:  87; 6HR MAX TEMP:  94;

$$

ARZ056-057-069-020100-
SOUTHEAST ARKANSAS

CITY           SKY/WX    TMP DP  RH WIND       PRES   REMARKS
PINE BLUFF     PTSUNNY   84  70  62 CALM      30.00F HX  88
6HR MIN TEMP:  84; 6HR MAX TEMP:  90;

STUTTGART      MOSUNNY   82  68  61 W5        30.01F HX  85
6HR MIN TEMP:  82; 6HR MAX TEMP:  91;

MONTICELLO     MOSUNNY   93  72  50 CALM      30.00R HX 101
6HR MIN TEMP:  91; 6HR MAX TEMP:  97;


$$





USA.gov is the U.S. government's official web portal to all federal, state and local government web resources and services.